Regional Weather Roundup
Issued by NWS

Home | Current Version | Previous Version | Graphics & Text | Print | Product List | Glossary On
Versions: 1 2 3 4 5 6 7 8 9 10 11 12 13 14 15 16 17 18 19 20 21 22 23 24 25 26 27 28
000
ASUS45 KTFX 272210
RWRMT
MONTANA REGIONAL WEATHER ROUNDUP
NATIONAL WEATHER SERVICE GREAT FALLS MT
300 PM MST MON FEB 27 2017

NOTE: "FAIR" INDICATES FEW OR NO CLOUDS BELOW 12000 FEET WITH NO
SIGNIFICANT WEATHER AND/OR OBSTRUCTIONS TO VISIBILITY.

MTZ001>007-043-272300-
WEST OF THE DIVIDE

CITY           SKY/WX    TMP DP  RH WIND       PRES   REMARKS
KALISPELL      CLOUDY    25  18  74 S6        29.58F WCI  18
MISSOULA       CLOUDY    31  26  82 SE3       29.59S
BUTTE          PTSUNNY   30   9  41 SW12      29.47S WCI  20
MULLAN PASS    LGT SNOW  18  16  92 VRB6      29.45S VSB 3/4 WCI  10
ANACONDA         N/A     30   9  40 SW12      29.50R WCI  21
DEER LODGE       N/A     25  21  86 NE8       29.54S WCI  16
EUREKA           N/A     27  18  69 CALM      29.58S VSB 3/4
HAMILTON         N/A     34  12  40 SW9       29.57R WCI  26
LIBBY            N/A     30  23  74 CALM      29.56F
RONAN            N/A     24  19  81 CALM      29.66S VSB 0
$$

MTZ008-052>055-272300-
SOUTHWEST MONTANA

CITY           SKY/WX    TMP DP  RH WIND       PRES   REMARKS
BOZEMAN        PTSUNNY   28  17  63 CALM      29.53S
DILLON         CLOUDY    29  11  47 SW18      29.50R WCI  16
W YELLOWSTONE  CLOUDY    19  14  79 S13       29.51R HAZE    WCI   7
ENNIS          PTSUNNY   27  14  59 S13       29.57R WCI  16
THREE FORKS      N/A     34  34 100 E2        29.57S
$$

MTZ009-010-012-014-046-048-049-054-272300-
EAST SLOPES AND CENTRAL MONTANA

CITY           SKY/WX    TMP DP  RH WIND       PRES   REMARKS
CUT BANK       MOSUNNY   19  12  74 S9        29.52S WCI   8
GREAT FALLS    SUNNY     21  13  71 E9        29.53S WCI  11
MALMSTROM AFB  SUNNY     19  15  83 NE8       29.55S WCI   9
HELENA         CLOUDY    25  15  66 NW5       29.55S
AUGUSTA          N/A     21  18  86 SE3       29.48S
BOWMANS CRNR     N/A     26  17  69 S16       29.46S WCI  13
CHOTEAU          N/A     21  14  73 CALM      29.54S
POWER            N/A     20  13  73 E6        29.52S WCI  13
RAYNESFORD       N/A     18  11  75 SE13      29.53R WCI   4
ULM              N/A     22  14  69 MISG      29.53S
$$

MTZ011-013-016-021-045-047-050-051-272300-
NORTH CENTRAL MONTANA

CITY           SKY/WX    TMP DP  RH WIND       PRES   REMARKS
HAVRE          SUNNY     24  11  57 SE3       29.63S
LEWISTOWN      CLOUDY    21  13  71 E8        29.54S WCI  11
N BAR RANCH      N/A     14   9  79 SE7       29.56S WCI   4
CHINOOK          N/A     23  12  63 E15       29.66S WCI  10
DENTON           N/A     22  14  70 NE13      29.53F WCI  10
FORT BENTON      N/A     28  16  59 MISG      29.61R
GEYSER         PTSUNNY   16  11  80 CALM      29.53S
GRASS RANGE      N/A     19  14  79 N3        29.55S
JUDITH GAP     PTSUNNY   16  11  80 S15       29.53S WCI   1
ROY            PTSUNNY   18  15  86 MISG      29.57F
STANFORD         N/A     18  12  77 SE3       29.51S
WINIFRED         N/A     19  14  81 E13       29.56S WCI   6
$$

MTZ017>020-022>027-061-062-272300-
NORTHEAST MONTANA

CITY           SKY/WX    TMP DP  RH WIND       PRES   REMARKS
GLASGOW        MOSUNNY   18  10  71 SE13      29.74R WCI   5
JORDAN           N/A     20  15  81 SE9       29.69R WCI   9
SIDNEY         FLURRIES  19  12  74 NE12      29.78S WCI   7
WOLF POINT     SUNNY     17   8  67 E13       29.78S WCI   4
POPLAR           N/A     16   9  73 E12       29.78F WCI   3
$$

MTZ028>42-056>058-272300-
SOUTHCENTRAL AND SOUTHEAST MONTANA

CITY           SKY/WX    TMP DP  RH WIND       PRES   REMARKS
BAKER          PTSUNNY   28  20  71 NE13      29.65S WCI  17
BILLINGS       MOSUNNY   28  16  60 E6        29.59F WCI  22
LIVINGSTON     CLOUDY    29  17  61 CALM      29.51R
MILES CITY     CLOUDY    26  16  65 E3        29.68R
BIG TIMBER     MOSUNNY   28  18  64 CALM      29.56R
HARLOWTON      PTSUNNY   20  16  83 S9        29.56S WCI   9
LAUREL           N/A     27  13  55 NE6       29.61F WCI  21
$$

REGIONAL REPORTS...DAKOTAS

CITY           SKY/WX    TMP DP  RH WIND       PRES   REMARKS
WILLISTON      CLOUDY    16   7  67 NE8       29.80F WCI   5
MINOT          FLURRIES  14   7  73 N9        29.83S WCI   2
DICKINSON      LGT SNOW  16  11  80 NE15      29.71R WCI   1
BEACH            N/A    N/A N/A N/A MISG        N/A
CROSBY           N/A     12   1  62 NE6       29.84S WCI   3
TIOGA            N/A     12   9  85 E9        29.79F WCI   0
WATFORD CITY   CLOUDY    16  10  79 NE8       29.79R WCI   5
BISMARCK       CLOUDY    22  16  78 NE16      29.80R WCI   8
GRAND FORKS    CLOUDY    25  15  66 N17       29.87R WCI  12
FARGO          MOSUNNY   33  24  69 NE10      29.80F WCI  25
BUFFALO SD       N/A     35  19  52 NE12      29.56F WCI  27
RAPID CITY     CLOUDY    41  18  39 N15       29.57R
$$

REGIONAL REPORTS...WYOMING/IDAHO/WASHINGTON

CITY           SKY/WX    TMP DP  RH WIND       PRES   REMARKS
GILLETTE       CLOUDY    37   9  31 E8        29.54S WCI  31
SHERIDAN       CLOUDY    31  18  58 S8        29.56F WCI  23
BUFFALO WY     CLOUDY    30  12  47 CALM      29.55S
CODY           CLOUDY    32  14  47 SE12      29.50S WCI  23
YELLOWSTONE LA   N/A     18   9  68 VRB5G17   29.48S
IDAHO FALLS    CLOUDY    24  20  84 SW20G29   29.64R WCI  10
SALMON         CLOUDY    32  16  51 SW9       29.57S WCI  24
BOISE          PTSUNNY   35  25  66 VRB3      29.76S
SPOKANE        CLOUDY    30  27  88 SW13      29.62F WCI  20
$$

REGIONAL REPORTS...ALBERTA

CITY           SKY/WX    TMP DP  RH WIND       PRES   REMARKS
EDMONTON       PTSUNNY   21   0  39 W2        29.61S
CALGARY        MOSUNNY   16   3  57 E5        29.52R
LETHBRIDGE     PTSUNNY   23  12  63 SW7       29.52F WCI  15
MEDICINE HAT   PTSUNNY   18   9  68 E9        29.64S WCI   6
WATERTON GATE    N/A     27  14  59 SW13G18     N/A  WCI  16
MILK RIVER       N/A     23  14  68 S13         N/A  WCI  11
ONEFOUR          N/A     18  10  73 SE9         N/A  WCI   6
$$

REGIONAL REPORTS...SASKATCHEWAN

CITY           SKY/WX    TMP DP  RH WIND       PRES   REMARKS
SWIFT CURRENT  MOSUNNY   12   5  73 S10       29.67S WCI  -1
REGINA         MOSUNNY   12  -2  52 SW9       29.81S WCI   0
SASKATOON      MOSUNNY   18   3  53 W10       29.78S WCI   6
CYPRESS HILLS    N/A     12   7  79 S13         N/A  WCI  -3
VAL MARIE        N/A     19  10  68 S9          N/A  WCI   9
ROCKGLEN         N/A     12   5  73 SE7         N/A  WCI   2
ASSINIBOIA       N/A     21   3  45 S8          N/A  WCI  12
$$




USA.gov is the U.S. government's official web portal to all federal, state and local government web resources and services.